Location: Il Palazzo
(43.8833°N, 11.5667°E)
Time: 07:02:36
(UTC+00:00)

Daily predictions for brighter satellites

Satellite Brightness Start Highest point End
(mag) Time Altitude Azimuth Time Altitude Azimuth Time Altitude Azimuth
Cosmos 2218 Rocket 4.0 18:46:44 10° S 18:52:52 73° E 18:59:01 10° NNE
Cosmos 1933 4.4 18:51:48 10° NNW 18:55:47 50° W 18:59:44 10° S
H-2A R/B 2.9 18:51:26 10° S 18:56:29 53° W 19:01:27 10° NNW
Cosmos 1782 2.8 18:53:59 10° N 18:58:00 72° E 19:02:01 10° SSE
Cosmos 1805 Rocket 4.5 18:55:32 10° SSE 18:59:21 29° E 19:03:12 10° NNE
Cosmos 1980 Rocket 4.0 18:56:27 10° N 19:00:12 18° NE 19:03:55 10° E
MOS 1 4.3 18:54:53 10° SSE 19:00:32 82° ENE 19:06:12 10° NNW
ERBS 3.5 18:57:43 10° WSW 19:00:56 45° NW 19:04:09 10° NE
DMSP B5D2-2 4.1 19:01:14 10° NNE 19:06:27 66° ESE 19:11:39 10° S
OE (NEXTSAT) 4.5 19:05:06 10° WNW 19:08:37 73° NNE 19:12:06 10° E
SL-4 R/B 2.8 19:05:22 10° SSW 19:08:51 27° SE 19:12:07 10° ENE
ATLAS 5 CENTAUR R/B 2.6 19:03:24 10° NNW 19:09:04 64° NE 19:15:39 10° SE
SL-08 RB Rocket 4.3 19:08:07 10° S 19:12:40 62° W 19:17:18 10° NNW
MetOp-A 4.2 19:09:04 10° SSE 19:14:25 86° ENE 19:19:48 10° NNW
Cosmos 1833 Rocket 3.2 19:10:37 10° S 19:15:42 37° ESE 19:20:50 10° NE
Cosmos 1697 Rocket 3.5 19:11:24 10° N 19:16:35 36° NE 19:21:19 12° ESE
Cosmos 2228 Rocket 3.0 19:13:54 10° N 19:18:22 76° E 19:22:44 10° SSE
SPOT 3 Rocket 3.6 19:15:27 10° SSE 19:20:38 69° ENE 19:25:49 10° N
Cosmos 1515 Rocket 4.5 19:16:38 10° NNW 19:20:58 52° W 19:25:18 10° S
Cosmos 1633 Rocket 4.5 19:18:04 11° SE 19:21:04 20° E 19:24:20 10° NE
Cosmos 389 Rocket 2.8 19:18:00 10° N 19:21:19 44° ENE 19:24:21 12° SSE
Cosmos 2251 Rocket 3.9 19:17:26 10° SSW 19:22:40 72° WNW 19:27:58 10° NNE
Cosmos 1812 3.2 19:19:34 10° N 19:23:15 42° ENE 19:26:34 12° SSE
Cosmos 1727 Rocket 4.1 19:17:06 10° N 19:23:30 84° E 19:29:51 10° S
Cosmos 1656 3.6 19:22:49 10° NNW 19:28:19 75° ENE 19:33:31 12° SSE
IRIDIUM 104 4.3 19:25:37 10° S 19:30:46 68° E 19:35:59 10° N
Resurs 01 Rocket 1.7 19:27:31 10° SSE 19:31:46 59° ENE 19:36:08 10° N
Cosmos 1707 Rocket 4.2 19:28:39 10° N 19:32:43 37° ENE 19:35:43 16° SE
Cosmos 220 Rocket 4.1 19:28:42 10° NNW 19:32:51 55° ENE 19:36:05 16° SE
Cosmos 972 Rocket 4.0 19:29:44 10° NNW 19:34:44 75° WSW 19:39:36 10° S
FALCON 9 DEB 3.9 19:33:56 10° SSW 19:37:02 30° SE 19:40:08 10° ENE
Cosmos 1441 Rocket 3.1 19:33:39 10° S 19:37:26 65° E 19:41:11 10° NNE
IRIDIUM 114 4.3 19:34:42 10° S 19:39:55 83° E 19:45:10 10° N
Cosmos 614 Rocket 3.9 19:36:00 10° SSW 19:41:06 73° ESE 19:46:19 10° NNE
NOSS 3-2 (A) 4.3 19:37:42 10° SSE 19:42:03 24° ESE 19:46:47 10° ENE
IGS 5A 4.3 19:41:07 19° ESE 19:43:29 34° ENE 19:47:14 10° N
USA 267 3.2 19:41:49 10° NE 19:48:25 84° SE 19:54:58 10° SW
IRIDIUM 103 4.4 19:43:51 10° S 19:49:04 82° W 19:54:19 10° N
GP-B 3.9 19:47:12 10° NNE 19:51:14 33° E 19:53:14 23° SE
Cosmos 1821 Rocket 3.9 19:45:08 10° S 19:51:14 82° E 19:57:29 10° N
COSMOS 2406 3.4 19:47:49 10° SSW 19:53:34 78° WNW 19:59:20 10° NNE
Shenzhou-11 Module 1.3 19:52:56 10° W 19:55:16 58° S 19:55:30 54° SSE
CZ-2C R/B 4.3 19:52:28 10° N 19:57:02 60° WNW 20:01:30 10° SSW
ERS-1 Rocket 4.0 19:56:09 20° ESE 19:58:34 30° ENE 20:02:55 10° N
SL-16 R/B 4.2 19:55:27 10° N 19:58:53 16° NE 20:02:17 10° E
Intercosmos 25 3.3 19:54:45 10° N 19:59:08 78° W 20:01:26 19° S
Cosmos 1862 Rocket 4.3 19:55:07 10° N 19:59:15 35° ENE 20:01:01 25° ESE
Lacrosse 5 3.8 19:57:34 10° NW 20:01:36 23° NNE 20:05:37 10° ENE
Cosmos 1862 4.4 19:58:51 10° SSW 20:02:44 46° WNW 20:06:40 10° N
Sich 1 3.2 19:59:09 10° SSW 20:03:35 78° W 20:08:03 10° N
Cosmos 2369 3.7 19:58:48 10° NNW 20:04:33 74° ENE 20:08:05 24° SE
BREEZE-M DEB (TANK) 3.9 20:06:16 10° WNW 20:08:40 24° N 20:09:54 14° NE
Cosmos 2082 Rocket 2.2 20:03:05 10° S 20:08:40 60° ESE 20:14:16 10° NNE
Cosmos 1818 3.6 20:03:44 10° NW 20:09:13 83° WSW 20:12:24 26° SSE
Cosmos 1954 Rocket 4.3 20:06:50 18° S 20:10:28 46° ESE 20:15:33 10° NNE
Cosmos 2278 3.9 20:08:10 10° NNW 20:13:50 60° ENE 20:16:44 28° SE
Cosmos 2123 Rocket 4.0 20:07:50 10° N 20:14:03 72° E 20:18:06 23° SSE
Cosmos 1535 Rocket 4.4 20:08:44 12° S 20:14:22 71° E 20:20:27 10° NNE
Spot 2 Rocket 3.5 20:11:25 25° SSE 20:14:25 75° ENE 20:19:32 10° N
Meteor 2-20 4.4 20:09:38 10° N 20:15:51 84° E 20:20:07 21° S
Cosmos 1184 Rocket 2.8 20:21:02 55° ESE 20:21:12 56° E 20:24:27 10° NNE
CARTOSAT-1 4.1 20:20:05 34° ESE 20:21:18 43° ENE 20:25:25 10° N
Cosmos 1190 Rocket 4.0 20:16:11 10° SSW 20:21:27 85° WNW 20:26:48 10° NNE
Cosmos 2322 Rocket 4.0 20:17:31 10° N 20:21:30 19° NE 20:24:25 13° E
Meteor 1-4 Rocket 2.3 20:18:08 10° N 20:21:38 83° E 20:22:26 50° SSE
Terra 2.9 20:21:08 26° E 20:22:29 30° ENE 20:26:39 10° N
USA 234 3.4 20:18:46 24° ESE 20:22:57 71° NE 20:29:28 10° NW
Cosmos 407 Rocket 3.9 20:19:08 10° SSW 20:24:26 66° WNW 20:29:43 10° NNE
Cosmos 1605 Rocket 4.0 20:21:08 25° SSE 20:24:41 57° E 20:30:40 10° NNE
Cosmos 1933 Rocket 4.2 20:24:16 35° ESE 20:24:47 36° E 20:28:51 10° NNE
Cosmos 1666 Rocket 3.8 20:21:27 13° SSW 20:25:11 68° W 20:29:31 10° N
Meteor 1-20 Rocket 4.4 20:23:25 27° SSE 20:26:32 57° E 20:32:15 10° NNE
Cosmos 1238 Rocket 3.4 20:28:02 30° NE 20:28:02 30° NE 20:29:57 10° NNE
SL-8 R/B 4.5 20:22:47 10° WNW 20:27:18 40° SW 20:28:49 31° S
MetOp-B 4.5 20:25:45 20° S 20:29:26 62° WSW 20:34:46 10° NNW
Okean 1 4.2 20:27:31 10° N 20:31:13 33° ENE 20:31:27 33° E
Cosmos 1602 4.5 20:31:37 36° E 20:31:37 36° E 20:34:59 10° NNE
Meteor 1-27 Rocket 4.3 20:26:38 10° NNW 20:32:26 59° W 20:36:53 17° S
Cosmos 2360 Rocket 4.4 20:32:27 10° N 20:35:26 14° NE 20:38:25 10° ENE
CZ-4B DEB 4.3 20:35:36 65° E 20:35:38 65° ENE 20:38:57 10° N
Cosmos 1437 Rocket 4.2 20:32:32 10° NNE 20:35:27 24° ENE 20:35:27 24° ENE
SPOT 5 2.8 20:35:54 45° ESE 20:36:47 53° ENE 20:41:01 10° N
USA 238 DEB 3.6 20:30:59 10° SSW 20:37:26 60° ESE 20:44:10 10° NE
USA 238 3.6 20:31:07 10° SSW 20:37:32 60° ESE 20:44:15 10° NE
BREEZE-M DEB (TANK) 4.1 20:36:47 10° W 20:38:27 13° WSW 20:39:00 12° SW
SPOT 1/Viking Rocket 3.6 20:39:53 33° S 20:42:18 76° WSW 20:47:34 10° NNW
Cosmos 1980 Rocket 2.1 20:39:18 10° NNW 20:45:01 89° WSW 20:47:05 41° SSE
Cosmos 1703 Rocket 4.1 20:42:50 10° N 20:46:57 39° ENE 20:47:05 39° E
Cosmos 2242 Rocket 3.7 20:42:38 10° N 20:47:01 55° ENE 20:47:29 52° ESE
SL-4 R/B 2.4 20:44:26 10° WSW 20:48:17 56° NNW 20:51:35 12° NE
Cosmos 405 Rocket 2.8 20:49:22 57° ENE 20:49:22 57° ENE 20:52:37 10° NNE
BREEZE-M DEB (TANK) 3.8 20:46:50 10° WNW 20:49:51 45° N 20:58:14 10° ENE
Cosmos 1763 Rocket 4.2 20:44:53 10° N 20:49:54 40° ENE 20:51:08 35° E
Cosmos 1140 Rocket 4.3 20:45:04 10° SW 20:50:09 51° WNW 20:55:17 10° N
Genesis I 3.0 20:46:41 10° NNW 20:50:34 82° NE 20:50:44 79° E
ATLAS 5 CENTAUR R/B 3.9 20:48:35 10° WNW 20:53:35 27° WSW 20:57:17 17° SSW
USA 32 4.2 20:53:02 28° SSW 20:55:50 69° W 21:01:04 10° N
Cosmos 1633 Rocket 4.4 20:55:05 13° SW 20:58:35 37° WNW 21:02:42 10° N
Cosmos 1833 Rocket 4.2 20:54:31 10° WSW 20:59:38 35° NW 21:04:47 10° N
Cosmos 1697 Rocket 3.8 20:55:25 10° NW 21:00:30 36° WSW 21:03:04 24° SSW
Cosmos 1153 Rocket 4.3 21:03:26 43° S 21:05:33 77° E 21:11:43 10° N
CENTAUR R/B 2.5 21:04:46 48° SSE 21:05:56 55° ESE 21:12:36 10° NE
Cosmos 1867 3.9 21:00:41 10° SW 21:06:03 64° NW 21:11:31 10° NNE
Meteor 1-18 Rocket 4.1 21:02:54 10° N 21:08:33 86° E 21:09:49 55° SSE
Resurs 01 Rocket 4.2 21:06:22 10° WSW 21:08:38 14° W 21:10:55 10° WNW
Okean 1-7 3.1 21:04:23 10° N 21:08:30 59° ENE 21:08:30 59° ENE
FALCON 9 DEB 4.4 21:10:37 10° W 21:13:58 42° NNW 21:15:22 27° NNE
Cosmos 1802 Rocket 4.4 21:13:52 41° ESE 21:14:38 43° E 21:20:36 10° NNE
Cosmos 1850 Rocket 3.9 21:14:18 64° SE 21:14:43 67° ESE 21:19:59 10° NNE
Meteor 2-4 Rocket 3.8 21:12:37 10° N 21:18:14 57° ENE 21:18:53 54° ESE
Cosmos 1515 4.1 21:15:13 10° N 21:18:22 58° N 21:18:22 58° N
ATLAS 5 CENTAUR R/B 3.5 21:19:45 10° NNW 21:22:31 30° NE 21:23:25 28° ENE
USA 267 4.5 21:25:03 10° NE 21:31:04 41° NNW 21:37:05 10° W
NOSS 3-2 (A) 3.8 21:26:34 10° SW 21:32:12 62° NW 21:38:41 10° NNE
Cosmos 921 Rocket 3.9 21:31:07 10° NNW 21:34:50 39° W 21:34:50 39° W
ERS-1 Rocket 4.1 21:36:08 31° WSW 21:37:15 34° W 21:41:50 10° NNW
NOSS 3-2 (C) 3.3 21:35:51 42° SW 21:37:59 86° NW 21:44:30 10° NE
Cosmos 841 Rocket 3.7 21:36:48 10° NNW 21:41:58 58° ENE 21:42:00 58° ENE
Cosmos 540 Rocket 3.7 21:38:17 10° NNW 21:43:22 57° ENE 21:43:22 57° ENE
SL-16 R/B 2.0 21:38:13 10° NNW 21:43:55 82° ENE 21:44:17 77° ESE
Lacrosse 5 2.0 21:40:20 10° NW 21:45:24 65° NE 21:45:31 64° NE
Cosmos 468 Rocket 4.2 21:40:19 10° NNW 21:45:33 61° WSW 21:45:45 61° WSW
Cosmos 1741 Rocket 4.2 21:48:23 57° WSW 21:49:11 66° WNW 21:54:27 10° NNE
Cosmos 2082 Rocket 4.3 21:48:34 10° WSW 21:53:10 24° NW 21:57:46 10° N
Cosmos 1570 Rocket 4.0 21:47:56 10° NNW 21:53:10 75° NE 21:53:10 75° NE
Tsikada Rocket 4.3 21:48:13 10° N 21:54:26 51° ENE 21:54:55 50° E
Cosmos 2219 Rocket 4.1 21:50:35 10° N 21:54:44 20° NE 21:56:38 17° ENE
Cosmos 2208 Rocket 4.1 21:50:07 10° NNW 21:55:11 64° NE 21:55:11 64° NE
Cosmos 1814 Rocket 4.2 21:50:35 10° NNW 21:55:32 62° NE 21:55:32 62° NE
Terra 3.1 22:00:02 31° W 22:00:10 31° W 22:04:24 10° NNW
Cosmos 2237 4.5 21:54:40 10° NNW 22:00:18 55° ENE 22:00:34 55° ENE
USA 234 4.0 22:06:06 36° SW 22:06:14 36° SW 22:12:12 10° WNW
Cosmos 2322 Rocket 2.1 22:00:33 10° NNW 22:06:13 82° W 22:06:13 82° W
Cosmos 2100 Rocket 4.3 22:05:35 48° SW 22:06:56 59° WNW 22:13:00 10° N
Meteor 1-11 Rocket 3.6 22:09:10 79° ENE 22:09:10 79° ENE 22:14:40 10° NNE
Geosat 4.4 22:20:48 57° WNW 22:20:48 57° WNW 22:25:05 10° NNW
Cosmos 2360 Rocket 2.2 22:14:49 10° NNW 22:20:19 71° NE 22:20:19 71° NE
ATLAS 3B R/B 2.5 22:21:12 71° ESE 22:21:12 71° ESE 22:27:34 10° NE
Iridium 4 Rocket 4.4 22:21:45 34° WNW 22:21:45 34° WNW 22:25:05 10° NNW
COSMOS 2428 4.2 22:16:30 10° N 22:21:22 27° NE 22:22:37 25° ENE
ALOS 2 3.7 22:27:44 42° NNE 22:27:44 42° NNE 22:30:47 10° N
Cosmos 1725 Rocket 3.9 22:27:19 75° WSW 22:27:43 78° W 22:34:05 10° N
Cosmos 1980 Rocket 4.4 22:25:48 10° WNW 22:28:07 13° W 22:28:51 12° WSW
SL-4 R/B 4.2 22:25:19 10° WNW 22:27:13 20° NW 22:27:13 20° NW
SL-08 R/B 4.4 22:32:19 68° W 22:32:36 70° W 22:38:42 10° N
Nimbus 7 Rocket 4.4 22:26:49 10° NNE 22:32:15 70° ENE 22:32:15 70° ENE
Cosmos 2016 Rocket 4.5 22:39:51 48° WSW 22:40:44 52° WNW 22:46:58 10° N
Cosmos 2333 Rocket 2.9 22:35:29 10° NNW 22:41:00 44° ENE 22:41:19 44° ENE
Cosmos 2061 Rocket 4.5 22:41:22 48° W 22:42:09 50° WNW 22:48:10 10° N
Lacrosse 4 Rocket 3.5 22:45:24 22° NE 22:45:24 22° NE 22:46:59 10° NE
Cosmos 2237 Rocket 4.4 22:41:00 10° N 22:44:50 18° NE 22:47:32 13° E
Cosmos 1733 Rocket 4.4 22:50:59 36° NNW 22:50:59 36° NNW 22:53:58 10° N
Meteor 2-11 Rocket 4.5 22:51:23 71° ENE 22:51:23 71° ENE 22:57:05 10° NNE
CENTAUR R/B 3.9 22:51:50 13° W 22:56:56 36° NW 23:03:34 10° NNE
Thor Agena Rocket 4.4 22:52:19 10° N 22:57:00 42° WNW 22:57:00 42° WNW
Cosmos 968 Rocket 4.2 22:59:01 47° NE 22:59:01 47° NE 23:02:41 10° NNE
Cosmos 2233 Rocket 4.4 23:14:31 53° W 23:14:48 53° WNW 23:21:01 10° N
Cosmos 1464 Rocket 4.2 23:15:36 62° E 23:15:36 62° E 23:21:28 10° NNE
Cosmos 2227 Rocket 4.1 23:22:42 18° E 23:22:42 18° E 23:25:27 10° ENE
Meteor 1-21 4.4 23:19:57 10° N 23:25:21 67° NE 23:25:21 67° NE
SL-16 R/B 4.4 23:24:15 10° WNW 23:26:08 14° W 23:26:08 14° W
Lacrosse 5 4.2 23:23:55 10° WNW 23:24:41 13° WNW 23:24:41 13° WNW
Cosmos 2322 4.3 23:25:09 10° NNW 23:29:31 49° WNW 23:29:31 49° WNW
Nadezhda 4 Rocket 4.1 23:31:37 10° N 23:37:53 63° E 23:38:04 63° E
Cosmos 2219 Rocket 2.5 23:33:38 10° NNW 23:38:19 60° NW 23:38:19 60° NW
Cosmos 1513 Rocket 4.4 23:42:38 81° W 23:42:38 81° W 23:49:05 10° N
Cosmos 2034 Rocket 4.0 23:43:53 73° E 23:43:53 73° E 23:50:06 10° NNE
Okean 2 Rocket 4.5 23:45:22 35° NE 23:45:22 35° NE 23:48:14 10° NNE
Cosmos 1975 Rocket 4.4 23:39:37 10° NNW 23:42:25 37° NNW 23:42:25 37° NNW
Cosmos 1503 Rocket 4.4 23:45:55 60° NNW 23:45:55 60° NNW 23:50:36 10° NNE
Cosmos 1072 Rocket 4.5 23:46:51 71° WNW 23:46:51 71° WNW 23:52:47 10° N
SL-16 R/B 4.0 23:46:16 22° ESE 23:49:00 31° ENE 23:54:20 10° N
Cosmos 1092 Rocket 4.4 23:46:00 10° N 23:52:04 50° ENE 23:52:45 48° E
CZ-2D R/B 3.8 23:50:29 10° NE 23:54:50 24° E 23:54:54 24° E
SL-16 R/B 4.3 23:50:41 10° N 23:55:09 23° NE 23:59:35 10° E
